Dewpoint
67 71 72 73 73 73 73 73 73 73 73 73 73 73 73 73 73 72 73 73 73 73 74 74 73 73 73 73 72 72 72 72 71 71 70 71 70 70 71 71 71 71 70 70 70 70 71 71 70 70 70 70 70 69 69 68 68 68 68 68 68 67 67 67 66 66 66 67 67 68 68 67 67 66 66 66 65 65 65 65 65 62 62 63 66
67 71 72 73 73 73 73 73 73 73 73 73 73 73 73 73 72 72 72 73 73 73 73 73 73 73 73 73 72 72 72 72 72 71 71 71 71 72 71 70 71 71 69 69 69 70 70 70 70 70 69 69 69 69 69 68 69 69 69 68 68 67 67 66 68 68 68 68 67 67 66 66 66 66 65 65 65 65 65 65 66 63 62 65 65
68 70 72 72 73 73 73 73 73 73 73 73 73 73 73 72 72 72 72 72 73 73 72 72 73 73 73 72 72 72 72 71 71 71 70 70 70 72 71 71 71 71 70 70 70 69 70 70 70 70 69 69 68 69 69 68 68 68 68 68 68 69 69 69 69 68 67 66 67 66 66 65 65 66 66 65 65 64 65 65 65 65 62 66 65
67 71 72 73 73 73 73 73 73 73 73 73 73 73 72 72 72 72 72 73 72 73 72 72 73 72 72 72 72 72 72 71 71 71 70 70 69 71 71 71 71 71 70 69 70 69 69 70 69 69 68 68 68 68 68 68 69 70 70 68 68 70 69 68 68 67 66 67 67 67 65 65 65 65 65 65 65 66 66 66 65 65 64 65 65
67 71 72 72 73 73 73 73 73 73 73 73 73 72 72 72 72 73 73 73 73 72 72 72 72 72 72 71 71 72 71 71 71 71 71 70 70 70 71 71 71 71 71 70 69 69 69 69 68 68 68 68 68 68 69 69 70 70 70 70 70 69 68 67 67 66 66 66 66 68 65 64 65 65 65 65 66 65 65 65 66 65 64 64 65
67 71 71 71 72 72 73 73 73 73 73 73 72 72 72 72 73 73 72 72 72 72 72 72 72 71 71 71 71 71 71 70 70 70 70 70 71 71 71 71 71 71 70 68 68 69 68 67 67 66 66 67 67 68 68 69 70 70 70 70 70 69 68 67 67 67 66 66 66 65 64 65 64 63 65 65 65 65 65 66 65 65 64 64 65
69 70 71 71 72 72 73 73 73 73 73 73 72 72 72 72 73 73 73 72 72 72 72 71 71 71 71 71 71 71 70 70 70 71 72 72 72 71 69 69 69 69 69 68 68 67 67 66 67 66 66 67 67 68 68 68 68 69 69 69 69 68 67 67 67 67 66 67 65 65 64 64 64 62 65 65 65 64 64 65 64 64 64 64 64
68 68 72 71 70 72 73 73 73 73 73 73 73 72 72 72 72 73 73 73 72 71 71 71 71 71 71 71 71 71 70 70 71 71 71 71 72 71 70 69 69 69 68 68 67 67 67 66 67 66 66 67 67 68 68 68 68 68 68 68 67 67 67 67 67 65 66 64 65 65 65 64 64 61 65 65 65 65 65 64 64 64 64 63 66
66 66 69 72 72 73 73 73 73 73 73 73 72 72 72 72 72 72 73 73 72 71 71 71 71 71 71 71 71 71 71 71 71 71 71 71 71 71 71 71 71 70 69 69 68 69 67 66 67 66 67 67 67 68 68 68 68 68 67 67 67 67 66 66 65 65 65 63 64 64 65 64 64 63 64 66 65 65 64 64 64 64 63 64 64
64 67 68 72 71 72 72 72 73 73 73 73 72 72 72 72 72 72 73 73 72 72 72 72 71 71 71 71 71 71 71 71 71 71 71 71 71 71 70 70 69 69 68 68 67 68 68 68 68 68 68 68 68 68 68 69 68 68 67 67 67 67 67 66 65 65 63 64 62 63 65 68 62 61 64 65 64 63 64 65 64 64 64 63 64
67 67 67 69 72 72 72 72 73 73 73 72 72 72 73 72 72 72 73 72 73 72 72 72 72 71 71 71 71 71 70 71 71 71 71 71 71 70 70 69 69 69 68 67 67 67 67 69 69 68 68 68 68 68 68 68 67 67 67 67 67 67 66 65 67 61 63 62 64 64 63 64 63 64 64 64 64 63 63 63 63 63 63 63 63
65 67 68 70 73 72 72 72 72 72 72 72 72 72 73 72 72 72 73 73 72 72 72 72 72 72 71 71 71 71 71 71 71 71 71 71 71 70 69 69 69 68 68 67 67 66 69 68 68 68 68 69 68 68 68 66 66 66 67 68 67 66 65 65 64 61 62 61 62 65 62 61 62 62 64 65 64 63 64 64 64 63 63 63 63
64 65 68 70 72 72 72 72 72 72 72 72 72 72 72 73 73 73 73 73 72 72 72 72 72 72 71 71 70 71 71 71 71 71 71 71 70 70 70 69 69 68 67 67 66 69 69 69 68 68 68 69 68 68 66 65 65 66 66 67 67 66 65 65 61 61 60 61 62 63 61 63 64 64 64 64 64 64 63 63 63 63 63 63 64
63 64 67 68 70 73 72 72 71 72 71 72 73 72 72 73 73 73 72 72 72 72 72 72 72 72 72 71 71 71 71 71 71 70 71 71 70 70 70 70 69 68 67 67 67 70 69 69 68 68 68 68 68 67 65 63 63 66 67 67 67 66 66 65 65 61 61 61 63 60 62 63 63 65 63 64 64 64 63 63 62 63 63 62 63
64 65 66 66 70 72 73 71 70 71 71 72 72 72 72 72 72 73 72 72 73 73 72 72 72 72 71 71 71 71 71 71 71 71 70 70 70 70 70 70 70 69 67 67 68 69 69 68 68 68 69 68 68 66 65 64 64 65 68 67 67 68 66 60 59 60 60 60 61 60 60 62 66 66 65 64 63 63 63 63 63 62 62 62 62
65 66 66 68 68 70 72 72 70 71 70 70 71 72 72 73 72 72 72 73 73 72 72 72 72 72 72 71 71 71 71 71 71 71 70 71 70 69 69 69 69 69 68 68 68 68 68 68 68 69 68 68 67 66 65 64 66 67 67 68 68 68 67 67 61 62 62 62 61 62 61 62 66 65 65 64 64 63 63 62 62 62 62 61 62
64 64 65 66 68 68 69 71 72 71 69 69 69 71 72 72 72 72 72 73 72 72 72 72 72 72 72 72 71 71 71 70 70 70 70 71 71 69 70 69 69 69 69 69 69 68 68 68 69 69 69 68 67 66 65 65 67 68 67 68 68 68 68 67 59 62 62 62 60 60 63 62 65 65 65 64 63 62 62 62 62 62 61 62 62
63 63 64 65 67 66 67 70 72 72 71 69 67 69 69 69 71 71 71 72 72 72 72 72 72 72 72 72 71 71 71 70 70 70 70 71 71 70 69 69 69 69 69 69 69 69 69 69 68 68 68 67 66 66 65 67 68 67 66 68 69 68 67 67 62 61 61 62 61 61 63 66 66 64 64 63 62 62 62 62 62 61 62 62 62
63 62 63 65 65 66 67 68 70 71 71 70 69 69 69 69 69 69 69 69 70 72 72 72 72 70 70 71 71 70 70 70 70 70 71 71 71 71 70 70 69 69 69 69 69 69 69 69 68 68 67 66 66 66 67 67 67 67 67 68 68 68 67 64 60 60 61 62 63 63 64 67 65 64 64 64 62 62 61 61 60 61 61 61 62
64 64 64 63 63 65 66 67 70 70 71 71 70 70 69 69 69 68 68 67 68 69 70 69 69 69 69 70 70 70 69 69 69 69 70 71 71 68 71 70 69 69 69 69 69 69 69 68 68 67 67 68 67 67 68 67 67 67 67 67 68 67 66 64 60 59 61 60 63 62 66 66 64 64 63 63 62 62 61 61 60 61 61 61 61
63 64 65 64 63 63 64 66 69 71 71 70 71 71 70 69 69 68 67 67 67 68 69 69 68 69 69 69 69 69 70 70 70 69 69 70 70 70 70 70 69 69 69 68 68 69 68 68 68 68 67 68 68 68 67 67 66 67 67 68 68 67 65 64 64 62 61 60 61 60 67 65 64 64 63 63 63 62 62 61 60 60 60 61 61
64 63 64 64 64 62 62 65 67 69 70 69 71 71 70 70 71 70 69 68 68 68 70 71 68 71 69 69 69 69 69 69 70 67 69 68 69 71 71 70 70 69 69 69 68 68 69 68 68 67 67 67 67 60 62 65 66 67 68 68 67 64 65 64 64 60 61 62 62 66 66 65 64 64 63 62 62 62 61 61 61 60 60 61 61
63 63 63 63 64 64 62 63 65 69 70 69 69 70 70 70 70 70 69 69 70 70 71 69 69 69 68 67 68 67 68 68 68 67 67 67 70 70 71 70 70 70 69 69 68 68 68 68 68 67 67 66 61 58 59 57 62 66 67 67 65 63 65 65 64 63 61 61 61 67 66 65 65 64 63 63 63 62 62 61 60 60 60 60 60
63 62 62 62 62 63 62 62 63 66 69 69 70 69 71 71 70 70 69 69 70 70 70 68 67 68 66 67 68 67 68 68 68 68 67 69 68 69 69 69 70 69 70 69 69 68 69 68 67 66 65 60 56 55 55 57 57 61 62 61 61 63 64 64 63 62 62 60 60 68 66 66 65 64 63 62 62 62 62 60 60 59 60 59 60
63 62 63 63 63 63 64 63 63 65 64 69 70 69 69 69 69 69 69 68 69 69 68 69 68 67 67 70 65 68 66 67 68 68 68 68 68 66 68 67 66 66 69 63 62 63 67 63 64 62 60 60 58 57 58 58 60 59 60 61 62 64 63 64 63 61 61 63 66 68 67 66 66 65 63 63 62 62 62 61 60 60 59 59 59
63 62 62 63 63 61 62 63 63 63 65 66 67 69 70 69 69 69 69 68 68 68 68 69 68 69 68 67 67 68 68 66 67 67 65 66 67 65 65 65 65 65 65 62 59 61 60 59 62 61 61 60 60 59 58 59 58 57 57 60 61 63 62 61 62 63 62 63 67 68 68 67 67 65 64 63 63 61 62 61 61 61 60 59 59
63 62 63 63 63 62 61 62 63 64 65 64 65 68 69 69 69 69 68 68 68 68 66 66 66 68 69 69 69 68 68 66 66 65 66 67 66 66 64 65 65 64 65 63 61 61 59 58 59 61 62 61 59 59 59 58 58 56 58 57 59 61 62 61 61 62 63 62 67 68 67 68 68 67 64 63 63 62 61 62 61 61 60 60 60
62 63 63 63 64 62 62 62 65 65 66 63 65 68 68 69 69 69 68 68 68 67 66 67 67 67 68 69 69 67 67 66 66 65 65 67 66 66 66 64 63 64 65 64 62 59 57 58 60 59 59 59 57 58 56 53 57 58 57 58 59 60 61 61 61 62 62 63 65 67 67 67 68 68 65 63 63 62 61 62 61 61 61 60 60
62 64 63 63 63 64 64 63 64 65 65 65 65 65 67 69 69 67 67 68 68 67 68 68 67 67 68 68 67 69 67 67 66 66 66 68 67 68 69 70 69 67 67 66 61 60 60 58 59 59 60 58 58 58 56 55 57 58 56 56 58 57 59 60 61 60 61 61 62 65 67 68 68 68 68 64 63 63 62 62 60 61 60 61 60
63 64 64 64 63 63 62 61 65 62 64 64 64 64 65 65 68 68 67 68 67 68 69 67 67 66 66 65 65 68 67 67 66 67 67 68 68 69 69 68 68 70 69 67 63 61 59 58 58 59 55 58 55 56 55 55 53 56 55 55 56 57 59 58 59 59 60 61 62 65 67 68 68 68 68 68 63 63 63 62 61 61 60 61 61
63 64 62 62 64 61 62 62 61 66 63 62 65 66 66 65 64 66 67 67 67 68 68 68 67 66 67 67 67 66 66 66 68 68 67 68 68 68 68 68 67 69 70 68 66 62 62 61 60 57 55 55 56 54 54 55 54 51 53 53 54 58 58 59 58 57 57 59 60 62 65 68 68 67 68 67 68 64 63 63 63 62 61 61 61
63 63 63 63 64 63 61 63 62 67 66 60 65 64 64 64 65 65 65 67 69 68 67 67 67 66 68 66 67 67 66 67 68 67 67 67 66 66 67 68 67 68 68 67 64 63 62 61 55 60 61 56 57 57 58 56 55 51 52 51 53 56 56 58 57 57 56 57 58 60 62 64 68 67 67 67 67 67 64 63 63 63 62 62 62
64 65 65 65 65 66 65 65 65 66 66 65 62 63 64 62 63 64 64 66 67 67 67 67 67 67 68 67 67 67 66 65 67 67 66 66 67 67 67 66 67 68 66 66 65 65 62 62 58 58 60 58 59 57 56 58 58 56 54 51 54 53 53 54 58 58 56 56 57 57 60 61 65 67 67 67 67 67 67 64 64 63 62 62 62
64 65 67 66 66 66 66 66 65 65 66 64 65 61 63 63 63 63 64 65 64 64 66 67 67 67 67 66 66 65 65 66 65 67 66 66 66 66 66 66 66 66 66 67 66 63 60 59 57 58 55 55 58 59 60 58 56 56 57 54 55 56 54 52 55 56 57 57 56 58 58 58 60 64 64 68 67 67 66 67 65 64 63 62 62
63 65 66 65 66 66 65 64 65 66 66 65 65 62 64 61 59 61 62 62 63 63 65 65 65 65 65 67 66 65 65 64 65 67 66 65 65 66 66 65 65 66 66 66 66 63 63 60 58 58 58 58 55 57 58 61 62 60 59 60 56 53 56 54 55 56 54 58 58 57 59 58 59 60 62 64 67 67 66 66 67 66 64 63 63
65 66 66 66 65 65 65 64 65 65 65 64 64 64 64 63 61 61 62 63 59 59 59 60 60 62 62 64 64 65 66 65 64 64 66 65 65 65 66 67 66 66 65 66 66 64 63 63 61 61 60 58 57 58 57 58 61 62 62 61 60 59 56 55 55 53 54 56 56 58 59 59 60 60 61 62 64 65 66 66 66 67 66 64 63
66 66 65 65 65 64 65 66 65 65 64 64 63 63 63 62 62 62 62 61 58 57 57 59 58 59 59 61 60 62 61 61 64 64 65 65 64 65 64 65 66 66 66 66 66 65 64 63 65 64 64 61 57 58 59 58 59 59 60 62 61 60 59 57 56 56 52 56 56 55 57 58 59 61 61 62 63 63 66 66 66 66 66 66 65
67 67 66 65 65 65 65 65 65 63 64 63 64 64 62 62 59 59 60 59 59 57 57 57 58 56 58 59 61 59 62 61 62 62 64 64 64 64 64 65 65 66 66 65 65 65 65 64 64 65 63 63 60 60 59 59 58 55 57 57 60 62 60 59 57 56 54 54 56 55 56 57 58 58 59 61 60 62 64 66 66 65 65 65 66
65 67 67 66 65 65 65 65 64 64 63 65 65 64 64 62 60 59 59 57 58 58 57 56 56 58 58 60 60 61 60 60 61 62 62 61 62 63 63 64 65 65 65 64 64 64 64 64 64 65 65 63 60 62 61 63 60 58 56 56 58 61 63 61 59 58 55 55 53 54 52 57 58 58 61 61 60 61 62 63 64 63 64 65 66
63 65 67 66 66 66 65 65 64 65 65 64 61 58 56 55 56 55 54 53 56 56 58 56 57 55 59 58 59 59 58 59 59 59 60 60 60 60 62 62 62 64 64 64 64 64 64 65 64 64 64 64 64 65 66 64 65 64 63 62 60 58 59 60 59 57 57 57 56 55 54 53 56 58 58 58 59 59 60 61 61 60 60 63 65
62 64 65 66 65 62 63 63 64 65 60 57 56 54 54 53 54 53 53 52 54 57 57 57 57 56 58 55 56 55 57 57 57 57 59 59 59 59 60 62 62 61 62 63 64 64 64 65 65 65 64 65 65 67 67 64 65 64 65 63 62 59 61 62 59 57 55 56 56 55 55 56 55 56 57 57 56 57 58 60 60 60 59 59 65
59 61 63 63 63 62 62 62 62 61 59 58 56 55 54 51 51 51 49 49 52 53 54 57 58 58 56 55 55 54 56 56 57 58 57 58 59 57 60 59 60 61 62 64 63 63 63 64 64 64 64 63 64 65 65 64 63 63 61 61 63 63 63 62 60 56 55 54 57 58 58 57 54 56 57 56 57 57 56 58 60 59 58 59 59
59 59 61 61 62 62 60 63 60 59 59 59 56 54 54 56 53 51 50 52 55 56 54 56 57 54 57 56 57 57 56 54 57 56 58 58 58 57 58 59 60 60 61 62 63 63 63 63 63 63 62 63 63 65 65 64 63 63 63 59 59 58 60 62 62 60 59 57 56 55 55 53 53 52 54 57 57 57 55 57 57 59 60 60 58
58 58 59 59 60 59 59 62 60 60 59 60 56 57 58 59 59 56 58 54 55 58 59 57 56 55 55 56 56 57 56 55 54 53 56 56 58 56 56 56 58 58 58 58 59 59 62 62 63 62 62 60 61 62 64 65 64 62 59 58 59 58 56 56 59 59 61 59 59 58 56 54 54 52 55 55 56 58 59 58 58 60 61 61 60
58 56 59 58 59 59 61 61 60 60 59 59 59 60 59 58 58 59 58 58 57 56 54 53 54 54 54 55 55 56 56 55 55 54 53 56 57 56 55 57 56 57 55 54 56 57 56 58 60 61 62 61 59 61 62 63 63 65 61 59 57 56 57 59 60 60 61 58 57 57 57 58 57 57 57 56 57 59 59 59 61 61 62 62 62
57 57 59 58 58 57 60 60 59 60 59 60 59 56 54 54 53 52 51 52 52 52 50 51 52 53 51 54 55 55 55 55 54 54 53 54 56 57 57 54 56 55 54 52 55 54 55 56 56 58 59 61 61 59 60 62 62 62 63 64 60 58 58 60 59 58 63 63 62 61 58 59 59 58 58 57 57 57 59 62 62 63 64 63 60
55 57 58 58 57 57 59 59 58 59 59 59 58 55 55 54 55 52 51 49 48 49 52 53 53 51 53 55 55 57 55 56 56 55 55 55 55 55 56 54 54 55 54 54 53 55 54 56 55 55 55 57 58 56 58 59 60 61 61 61 61 62 61 60 59 60 57 61 62 62 63 63 61 59 57 57 58 60 62 61 61 59 61 61 62
55 57 58 58 56 58 59 58 57 57 59 59 57 55 54 54 54 53 50 47 48 51 54 54 55 53 52 54 55 55 55 55 55 54 55 55 56 56 56 55 53 52 51 51 52 53 54 55 57 57 56 55 56 54 55 56 56 57 59 59 60 60 60 61 60 58 59 56 58 62 62 63 63 61 61 61 60 61 62 62 59 59 59 59 61
55 57 57 57 57 59 59 58 56 57 59 59 56 55 54 53 53 51 48 48 52 51 50 52 52 54 54 53 53 53 55 55 53 54 52 51 53 53 51 49 48 47 45 45 47 48 52 53 54 54 56 56 56 56 53 51 54 54 56 56 55 56 57 59 56 57 58 56 57 58 59 61 61 64 62 62 62 62 62 61 60 59 59 61 61
57 57 56 57 58 59 58 57 56 56 57 59 56 56 55 55 53 51 50 49 49 50 49 51 53 54 54 54 53 52 52 54 53 50 50 48 50 50 50 50 50 47 47 47 49 51 51 51 53 53 53 53 53 55 54 52 52 53 51 53 52 52 52 53 54 54 55 56 54 56 59 57 57 61 63 63 62 62 61 59 60 59 61 63 60
59 56 56 56 58 58 57 56 56 54 56 58 56 56 55 56 53 53 52 51 51 50 49 53 52 53 53 52 51 51 51 51 51 51 51 50 52 51 51 50 50 50 49 49 50 48 50 51 51 52 52 52 50 51 51 52 51 52 51 51 50 50 51 50 51 51 52 52 51 48 51 49 51 55 62 62 61 61 61 64 61 61 59 59 59